Other Public Products
Issued by NWS Grand Forks, ND

Home | Current Version | Previous Version | Graphics & Text | Print | Product List | Glossary On
Versions: 1 2 3 4 5 6 7 8 9 10 11 12 13 14 15 16 17 18 19 20 21 22 23 24 25 26 27 28 29 30 31 32 33 34 35 36 37 38 39 40 41 42 43 44 45 46 47 48 49 50
684
FPUS83 KFGF 271210
OPUFGF
PRAIRIE TO PINES WEATHER ROUNDUP
NATIONAL WEATHER SERVICE EASTERN NORTH DAKOTA/GRAND FORKS ND
700 AM CDT FRI MAY 27 2016

 **SATELLITE DATA USED TO AUGMENT SKY COVER AT AUTOMATED STATIONS**
 *****  WEATHER ACROSS EASTERN NORTH DAKOTA  *****

CITY           SKY/WX    TMP DP  RH WIND       PRES   REMARKS
GRAND FORKS    MOSUNNY   54  52  93 NW7       29.78S
6HR MIN TEMP:  51; 6HR MAX TEMP:  57;

GRAND FORKS AF SUNNY     52  52 100 CALM      29.79S
GRAND CITY NWS   N/A     54 N/A N/A NE6         N/A
BUXTON           N/A     57  56  99 N6          N/A
DEVILS LAKE    FOG       50  48  93 CALM      29.81S VSB<1/4
FARGO          PTSUNNY   59  54  83 CALM      29.77S
6HR MIN TEMP:  56; 6HR MAX TEMP:  60;

WAHPETON ARPT  PTSUNNY   59  52  77 NE3       29.76F
$$

 *****  WEATHER ACROSS CENTRAL AND WESTERN NORTH DAKOTA  *****

CITY           SKY/WX    TMP DP  RH WIND       PRES   REMARKS
JAMESTOWN      SUNNY     53  51  93 N9        29.78S FOG
6HR MIN TEMP:  50; 6HR MAX TEMP:  54;

BISMARCK       FOG       50  50 100 N3        29.84S VSB 1/2
6HR MIN TEMP:  43; 6HR MAX TEMP:  52;

MINOT          CLEAR     56  52  86 W6        29.82F
6HR MIN TEMP:  55; 6HR MAX TEMP:  57; 6HR PCP:  0.01;

MINOT AFB      CLOUDY    52  52  98 NW5       29.81F
6HR MIN TEMP:  52; 6HR MAX TEMP:  55; 6HR PCP:  0.01;

GARRISON         N/A     50  49  96 NW6       29.83S
6HR MIN TEMP:  49; 6HR MAX TEMP:  52;

WILLISTON      CLOUDY    50  48  93 CALM      29.88S
6HR MIN TEMP:  46; 6HR MAX TEMP:  53;

DICKINSON      CLOUDY    43  41  93 CALM      29.85S
6HR MIN TEMP:  37; 6HR MAX TEMP:  50;

HETTINGER      CLEAR     36  35  96 W6        29.86F
6HR MIN TEMP:  33; 6HR MAX TEMP:  41;

$$

 *****  OTHER OBSERVATIONS NORTHEAST NORTH DAKOTA  *****

CITY           SKY/WX    TMP DP  RH WIND       PRES   REMARKS
WALHALLA       FAIR      54  54 100 CALM      29.80R
LANGDON        PTSUNNY   54  54 100 W6        29.80S
CAVALIER       FAIR      54  54 100 CALM      29.79S
GRAFTON        FAIR      54  54 100 CALM      29.82R
CANDO          NOT AVBL
FORT TOTTEN      N/A     52  52 100 CALM      29.95S
ROLLA          PTSUNNY   52  52 100 NW6       29.81F
RUGBY          FAIR      54  54 100 NW9       29.81S
 ***** THE ABOVE OBSERVATIONS ARE NON NWS ARE NOT QUALITY
        CONTROLLED AND MAY MIS-REPORT RAIN FOR SNOW...
$$

 *****  OTHER OBSERVATIONS SOUTHEAST NORTH DAKOTA *****

CITY           SKY/WX    TMP DP  RH WIND       PRES   REMARKS
COOPERSTOWN    NOT AVBL
VALLEY CITY    FAIR      54  54 100 E3        29.82R
OAKES            N/A    N/A N/A N/A MISG        N/A
GWINNER        FAIR      57  54  88 CALM      29.77F
SHEYENNE NWR     N/A     56  54  92 E2        29.95S
BUFFALO          N/A     55  52  91 NE5         N/A
WYNDMERE         N/A     59  54  82 CALM        N/A
 ***** THE ABOVE OBSERVATIONS ARE NON NWS ARE NOT QUALITY
       CONTROLLED AND MAY MIS-REPORT RAIN FOR SNOW...
$$

  *****  WEATHER ACROSS NORTHERN MINNESOTA  *****

CITY           SKY/WX    TMP DP  RH WIND       PRES   REMARKS
FLAG ISLAND    CLOUDY    55  54  94 CALM      29.79S
WARROAD        FOG       54  50  87 CALM      29.82R VSB 1/2
ROSEAU         HAZE      55  50  82 CALM      29.80S VSB<1/4
HALLOCK        PTSUNNY   52  50  93 CALM      29.79S FOG
THF RVR FALLS  SUNNY     55  52  88 CALM      29.81R
6HR MIN TEMP:  54; 6HR MAX TEMP:  57;

HALSTAD        NOT AVBL
FOSSTON        CLOUDY    55  54  94 E3        29.80F
BAUDETTE       CLOUDY    55  52  89 SE6       29.81R
6HR MIN TEMP:  49; 6HR MAX TEMP:  55; 6HR PCP:  0.01;

WASKISH        CLOUDY    57  55  94 CALM      29.80F
CROOKSTON      SUNNY     55  55 100 CALM      29.80S
$$
  *****  WEATHER ACROSS CENTRAL AND WEST MINNESOTA  *****

CITY           SKY/WX    TMP DP  RH WIND       PRES   REMARKS
BEMIDJI        SUNNY     56  53  90 SE6       29.81R
PARK RAPIDS    SUNNY     58  51  78 NE3       29.80F
6HR MIN TEMP:  51; 6HR MAX TEMP:  60;

WADENA         CLOUDY    52  50  93 N5        29.78F
DETROIT LAKES  SUNNY     57  54  88 E3        29.79F
MOORHEAD       MOSUNNY   57  54  88 CALM      29.78S
FERGUS FALLS   CLOUDY    61  54  77 NE6       29.74F
ELBOW LAKE     FAIR      61  53  75 E7        29.76S
6HR MIN TEMP:  59; 6HR MAX TEMP:  62;

MORRIS MN      CLOUDY    63  54  72 NE12      29.72F
STAPLES        PTSUNNY   54  48  82 NE6       29.79F
WHEATON        MOSUNNY   59  55  88 CALM      29.76F
$$
  *****  WEATHER ELSEWHERE ACROSS MINNESOTA  *****

CITY           SKY/WX    TMP DP  RH WIND       PRES   REMARKS
DULUTH         CLOUDY    54  50  86 E5        29.84F
6HR MIN TEMP:  49; 6HR MAX TEMP:  54;

INTRNTL FALLS  SUNNY     52  50  93 SE3       29.82F
6HR MIN TEMP:  44; 6HR MAX TEMP:  53;

ELY            SUNNY     48  48 100 CALM      29.86R
CLOQUET        CLOUDY    50  46  87 CALM      29.84S
BRAINERD       CLOUDY    59  52  77 CALM      29.79F
6HR MIN TEMP:  51; 6HR MAX TEMP:  59;

HIBBING        MOSUNNY   47  47 100 CALM      29.84F
6HR MIN TEMP:  41; 6HR MAX TEMP:  49;

ALEXANDRIA     CLOUDY    61  52  72 N8        29.76F
6HR MIN TEMP:  53; 6HR MAX TEMP:  64;

SAINT CLOUD    CLOUDY    60  55  83 E5        29.77F
6HR MIN TEMP:  57; 6HR MAX TEMP:  64;

MINNEAPOLIS    CLOUDY    67  56  67 SE8       29.79S
6HR MIN TEMP:  67; 6HR MAX TEMP:  70; 6HR PCP: TRACE;

$$

  *****  WEATHER ACROSS SOUTH DAKOTA  *****

CITY           SKY/WX    TMP DP  RH WIND       PRES   REMARKS
SIOUX FALLS    CLOUDY    61  55  81 SE5       29.73F
6HR MIN TEMP:  55; 6HR MAX TEMP:  63; 6HR PCP: TRACE;

BROOKINGS      NOT AVBL
WATERTOWN      CLOUDY    58  54  86 CALM      29.74F
6HR MIN TEMP:  56; 6HR MAX TEMP:  62; 6HR PCP: TRACE;

HURON          CLOUDY    58  57  97 MISG      29.72S
6HR MIN TEMP:  56; 6HR MAX TEMP:  61;

SISSETON         N/A     56  54  93 NW3       29.74F
ABERDEEN       MOCLDY    55  52  89 CALM      29.76S
6HR MIN TEMP:  54; 6HR MAX TEMP:  65;

MITCHELL       CLOUDY    59  58  96 CALM      29.70F
PIERRE         CLOUDY    53  48  83 NW13      29.74S
6HR MIN TEMP:  53; 6HR MAX TEMP:  59;

MOBRIDGE       PTCLDY    51  47  86 N5        29.78R
RAPID CITY     CLOUDY    50  43  77 NW7       29.85S
6HR MIN TEMP:  48; 6HR MAX TEMP:  51;

$$

  *****  SOME WEATHER IN NEARBY STATES *****

CITY           SKY/WX    TMP DP  RH WIND       PRES   REMARKS
GLASGOW MT     PTCLDY    47  46  97 E5        29.88F
6HR MIN TEMP:  47; 6HR MAX TEMP:  53;

GREAT FALLS MT CLEAR     42  39  89 S8        29.87S
6HR MIN TEMP:  37; 6HR MAX TEMP:  48;

CHEYENNE WY    CLOUDY    45  36  70 NW16      29.88F
6HR MIN TEMP:  44; 6HR MAX TEMP:  49;

SCOTTSBLUFF NE CLOUDY    51  47  86 N12       29.83S
6HR MIN TEMP:  50; 6HR MAX TEMP:  53; 6HR PCP:  0.01;

OMAHA NE       PTSUNNY   63  59  87 N6        29.74R
6HR MIN TEMP:  62; 6HR MAX TEMP:  65;

DES MOINES IA  CLOUDY    64  60  87 E7        29.76F
6HR MIN TEMP:  63; 6HR MAX TEMP:  65; 6HR PCP: TRACE;

DAVENPORT IA   CLOUDY    65  61  87 S14       29.84R
6HR MIN TEMP:  63; 6HR MAX TEMP:  70; 6HR PCP:  0.24;

CHICAGO IL     CLOUDY    68  64  87 S7        29.88R
6HR MIN TEMP:  66; 6HR MAX TEMP:  74;

EAU CLAIRE WI  CLOUDY    61  58  90 CALM      29.84S
6HR MIN TEMP:  57; 6HR MAX TEMP:  62;

LA CROSSE WI   LGT RAIN  65  62  90 S8        29.85R
6HR MIN TEMP:  64; 6HR MAX TEMP:  67; 6HR PCP:  0.01;

$$

  *****  SOME NATIONAL WEATHER *****

CITY           SKY/WX    TMP DP  RH WIND       PRES   REMARKS
LA GUARDIA NY  PTSUNNY   73  64  73 S7          N/A
6HR MIN TEMP:  68; 6HR MAX TEMP:  74;                              C1F1C2F2C3F3C4F4C5F5C6F6C7F7C8F8C9F9CaFaCbFbCcFcCdFdCe!



USA.gov is the U.S. government's official web portal to all federal, state and local government web resources and services.